Content
SEND FEEDBACK

Daily
Averages
Monthly
Summary
United States of America

PERRINE, FLORIDA


Home > North America > United States > Florida
Elevation: 1 foot     Latitude: 25 36N     Longitude: 080 21W

WEATHER
 
SELECT A DAY
Number of Records: 197,323;   Date Range: 1/1/95 - 11/21/14
 
SHARE

PRINT THIS DATA

[ ← Previous Day ]
WEATHER ALMANAC - FEBRUARY 13, 2013
[ Next Day → ]
[ °C ]   °F
Weather ElementAverageHighLow
Temperature74.7 °F84.9 °F (1:53 pm)66.2 °F (5:28 am)
Dewpoint69.1 °F72 °F (8:53 am)66.2 °F (5:28 am)
Humidity84.2 %100 % (3:21 am)57 % (1:53 pm)
Barometer29.99 in30.03 in (9:53 am)29.94 in (2:53 pm)
Wind Speed5.5 mph13.8 mph (1:53 pm)
Wind Gust19.6 mph (9:33 am)
Weather ElementAverage
Visibility8.2 mi
Wind DirectionESE (127.8 °)

Weather ElementTotal
Precipitation0.02 in
Cooling Degree Days10.6 (Base 65)
Growing Degree Days25.6 (Base 50)
Averaged from 32 records on February 13, 2013
WEATHER CONDITIONS BREAKOUT
WIND DIRECTION BREAKOUT
WEATHER BY HOUR - FEBRUARY 13, 2013
[ °C ]   °F
Local TimeTemperatureDewpointHumidityBarometerVisibilityWind DirectionWind SpeedGust SpeedPrecipitationEventsConditions
1:53 AM70.0 °F68.0 °F93 %30.01 in10.0 miCalmPartly Cloudy
2:53 AM70.0 °F69.1 °F97 %30.00 in10.0 miCalmMostly Cloudy
3:21 AM69.8 °F69.8 °F100 %29.99 in10.0 miSE (140°)3.5 mphMostly Cloudy
3:30 AM69.8 °F69.8 °F100 %29.99 in10.0 miSSE (150°)3.5 mphScattered Clouds
3:53 AM70.0 °F69.1 °F97 %29.98 in10.0 miSSE (150°)3.5 mphClear
4:50 AM69.8 °F68.0 °F94 %29.99 in2.0 miCalm0.01 inMostly Cloudy
4:53 AM69.1 °F68.0 °F96 %29.99 in1.2 miCalm0.01 inMostly Cloudy
5:03 AM69.8 °F68.0 °F94 %29.99 in0.5 miCalmFogFog
5:28 AM66.2 °F66.2 °F100 %29.99 in0.5 miCalmFogFog
5:53 AM68.0 °F68.0 °F100 %29.99 in0.5 miCalmFogFog
6:41 AM68.0 °F68.0 °F100 %30.00 in2.0 miCalmOvercast
6:49 AM69.8 °F69.8 °F100 %30.00 in6.0 miSSE (150°)3.5 mphMostly Cloudy
6:53 AM69.1 °F69.1 °F100 %30.00 in10.0 miSE (140°)3.5 mphOvercast
7:53 AM72.0 °F71.1 °F97 %30.01 in10.0 miSSE (160°)4.6 mphScattered Clouds
8:53 AM77.0 °F72.0 °F84 %30.02 in10.0 miSSE (160°)8.1 mphScattered Clouds
9:33 AM78.8 °F71.6 °F78 %30.02 in10.0 miSouth (170°)10.4 mph19.6 mphMostly Cloudy
9:53 AM79.0 °F70.0 °F74 %30.03 in10.0 miSSW (200°)9.2 mph17.3 mphMostly Cloudy
10:08 AM80.6 °F69.8 °F70 %30.03 in10.0 miSouth (190°)6.9 mphScattered Clouds
10:53 AM82.9 °F69.1 °F63 %30.02 in10.0 miSouth (180°)10.4 mphPartly Cloudy
11:53 AM84.0 °F68.0 °F58 %30.01 in10.0 miSSW (200°)12.7 mph18.4 mphPartly Cloudy
12:53 PM84.0 °F68.0 °F58 %29.99 in10.0 miSouth (180°)11.5 mph18.4 mphMostly Cloudy
1:53 PM84.9 °F68.0 °F57 %29.96 in10.0 miSSW (200°)13.8 mph19.6 mphPartly Cloudy
2:53 PM84.9 °F68.0 °F57 %29.94 in10.0 miSSW (200°)12.7 mph19.6 mphMostly Cloudy
3:53 PM82.9 °F69.1 °F63 %29.94 in10.0 miSouth (190°)9.2 mph19.6 mphScattered Clouds
4:53 PM81.0 °F68.0 °F65 %29.94 in10.0 miSSW (210°)11.5 mph19.6 mphClear
5:53 PM79.0 °F69.1 °F72 %29.94 in10.0 miSSW (210°)10.4 mphClear
6:53 PM75.9 °F69.1 °F79 %29.95 in10.0 miSouth (190°)8.1 mphClear
7:53 PM75.0 °F70.0 °F84 %29.96 in10.0 miSouth (190°)5.8 mphClear
8:53 PM73.0 °F70.0 °F90 %29.98 in10.0 miCalmClear
9:53 PM73.0 °F69.1 °F87 %29.99 in10.0 miSouth (180°)4.6 mphClear
10:53 PM72.0 °F70.0 °F93 %30.00 in10.0 miSouth (170°)3.5 mphScattered Clouds
11:53 PM72.0 °F70.0 °F93 %30.00 in10.0 miSouth (180°)4.6 mphMostly Cloudy
Hourly data recorded from KTMB, located miles away from Perrine, Florida







STORIES FROM OUR PARTNERS